�N����,����,�~����,�C��,���x,�C��,����,���ϕ���,�ő�u�ԕ���,�ő厞����,���˗�,�I�_���x,�n�����x,�ő啗���N��,DTYPE
"23/07/14","00:10",0.0,23.2,96.5,1004.5,288.0,0.7,1.3,337.9,0.00,22.7,24.3,"00:05:04",1
"23/07/14","00:20",0.0,23.1,96.5,1004.8,312.3,1.0,1.8,332.0,0.00,22.6,24.3,"00:18:48",1
"23/07/14","00:30",0.0,23.1,96.6,1004.3,304.4,0.6,1.8,329.7,0.00,22.6,24.1,"00:20:48",1
"23/07/14","00:40",0.0,23.0,96.6,1004.5,305.0,0.7,1.1,331.4,0.00,22.5,24.1,"00:36:08",1
"23/07/14","00:50",0.0,23.0,96.6,1004.3,279.5,0.8,1.4,334.2,0.00,22.5,24.3,"00:41:36",1
"23/07/14","01:00",0.0,23.0,96.7,1004.3,297.0,0.6,1.0,341.8,0.00,22.5,24.0,"00:58:24",1
"23/07/14","01:10",0.0,22.9,96.7,1004.1,325.9,0.7,1.8,329.0,0.00,22.4,24.2,"01:00:08",1
"23/07/14","01:20",0.0,22.9,96.7,1004.5,314.7,0.7,1.2,329.3,0.00,22.4,24.2,"01:12:48",1
"23/07/14","01:30",0.0,22.9,96.7,1004.3,285.7,0.7,1.1,323.4,0.00,22.4,23.9,"01:20:08",1
"23/07/14","01:40",0.0,22.9,96.8,1004.3,265.0,0.7,1.0,252.2,0.00,22.4,24.2,"01:33:20",1
"23/07/14","01:50",0.0,22.9,96.8,1004.3,302.4,0.7,1.1,327.7,0.00,22.4,24.1,"01:42:24",1
"23/07/14","02:00",0.0,22.9,96.8,1004.3,312.2,0.7,0.9,318.3,0.00,22.4,24.0,"01:56:40",1
"23/07/14","02:10",0.0,23.0,96.9,1003.8,315.0,0.8,1.7,345.8,0.00,22.5,23.7,"02:02:56",1
"23/07/14","02:20",0.0,23.0,96.8,1004.3,286.1,0.7,1.6,324.5,0.00,22.5,23.7,"02:17:36",1
"23/07/14","02:30",0.0,23.0,96.9,1004.1,268.0,0.6,0.9,258.2,0.00,22.5,23.9,"02:20:16",1
"23/07/14","02:40",0.0,22.9,96.9,1004.1,306.3,0.8,1.6,308.6,0.00,22.4,24.0,"02:31:52",1
"23/07/14","02:50",0.0,23.0,97.0,1004.3,333.6,0.8,1.6,314.8,0.00,22.5,23.9,"02:42:32",1
"23/07/14","03:00",0.0,23.1,97.0,1004.1,342.7,0.7,1.1,351.9,0.00,22.6,24.0,"02:56:40",1
"23/07/14","03:10",0.0,23.1,97.0,1004.1,296.7,0.8,1.4,337.0,0.00,22.6,23.8,"03:01:36",1
"23/07/14","03:20",0.0,23.0,97.0,1003.8,311.0,0.8,1.4,321.1,0.00,22.5,23.9,"03:14:16",1
"23/07/14","03:30",0.0,22.9,97.0,1003.8,290.2,0.6,1.7,325.7,0.00,22.4,23.8,"03:20:48",1
"23/07/14","03:40",0.0,22.9,97.0,1003.8,280.5,0.6,1.0,270.8,0.00,22.4,23.9,"03:33:28",1
"23/07/14","03:50",0.0,22.8,97.1,1003.8,293.9,0.6,1.0,320.8,0.00,22.4,24.0,"03:46:48",1
"23/07/14","04:00",0.0,22.8,97.1,1004.1,281.6,0.6,1.0,326.7,0.00,22.4,23.8,"03:59:28",1
"23/07/14","04:10",0.0,22.8,97.1,1003.8,309.0,0.2,0.9,297.4,0.00,22.4,23.7,"04:00:24",1
"23/07/14","04:20",0.0,22.8,97.2,1003.8,315.1,0.5,1.2,336.6,0.00,22.4,23.9,"04:18:56",1
"23/07/14","04:30",0.0,22.9,97.1,1004.1,289.8,0.7,1.1,311.6,0.00,22.5,24.0,"04:21:04",1
"23/07/14","04:40",0.0,22.9,97.1,1003.8,291.0,0.6,1.0,316.1,0.00,22.5,23.9,"04:32:32",1
"23/07/14","04:50",0.0,22.9,97.2,1004.1,336.1,0.8,1.3,323.0,0.00,22.5,23.7,"04:45:04",1
"23/07/14","05:00",0.0,22.9,97.2,1004.1,324.2,0.6,1.1,334.6,0.00,22.5,23.8,"04:53:04",1
"23/07/14","05:10",0.0,22.9,97.2,1003.8,301.2,0.5,0.8,282.5,0.00,22.5,23.6,"05:00:40",1
"23/07/14","05:20",0.0,22.9,97.2,1003.8,304.2,0.6,1.1,314.0,0.00,22.5,23.9,"05:15:28",1
"23/07/14","05:30",0.0,23.0,97.3,1004.1,292.3,0.7,1.1,326.2,0.00,22.6,23.7,"05:27:12",1
"23/07/14","05:40",0.0,23.1,97.3,1004.1,337.5,0.7,1.2,333.0,0.01,22.7,23.8,"05:30:32",1
"23/07/14","05:50",0.0,23.3,97.3,1003.8,334.4,0.8,1.3,336.2,0.01,22.9,23.7,"05:48:32",1
"23/07/14","06:00",0.0,23.4,97.3,1003.8,319.6,0.8,1.4,342.3,0.03,23.0,23.6,"05:50:32",1
"23/07/14","06:10",0.0,23.7,97.3,1003.8,283.5,0.5,1.2,336.8,0.05,23.3,23.6,"06:00:24",1
"23/07/14","06:20",0.0,23.8,97.2,1004.3,260.2,0.3,1.1,327.9,0.04,23.4,23.7,"06:10:02",1
"23/07/14","06:30",0.0,23.9,97.2,1004.3,334.9,0.7,1.2,326.8,0.04,23.5,23.8,"06:22:32",1
"23/07/14","06:40",0.0,24.1,97.2,1004.1,333.3,0.7,1.3,337.1,0.06,23.7,23.7,"06:36:56",1
"23/07/14","06:50",0.0,24.4,97.2,1004.1,53.4,0.2,1.2,349.8,0.10,24.0,23.9,"06:40:08",1
"23/07/14","07:00",0.0,24.7,97.2,1004.3,267.0,0.3,0.8,252.3,0.13,24.3,23.7,"06:53:52",1
"23/07/14","07:10",0.0,25.1,97.0,1004.1,249.2,0.3,1.0,243.2,0.15,24.6,23.7,"07:01:36",1
"23/07/14","07:20",0.0,25.4,96.9,1004.1,198.4,0.2,0.6,245.9,0.15,24.9,23.7,"07:10:08",1
"23/07/14","07:30",0.0,25.8,96.8,1003.8,147.7,0.2,1.1,187.7,0.15,25.3,23.7,"07:26:16",1
"23/07/14","07:40",0.0,26.0,96.2,1004.1,238.8,0.2,0.9,198.0,0.16,25.4,23.7,"07:38:24",1
"23/07/14","07:50",0.0,26.1,96.5,1003.8,161.0,0.5,1.0,238.8,0.09,25.5,24.0,"07:48:32",1
"23/07/14","08:00",0.0,26.2,96.5,1003.6,292.8,0.3,0.9,309.3,0.11,25.6,23.8,"07:50:02",1
"23/07/14","08:10",0.0,26.0,96.6,1003.6,336.6,0.6,1.4,345.9,0.12,25.5,23.9,"08:00:02",1
"23/07/14","08:20",0.0,25.5,96.5,1003.4,337.3,1.0,1.9,342.0,0.07,24.9,23.9,"08:18:08",1
"23/07/14","08:30",0.0,25.7,96.5,1003.8,338.4,0.6,1.3,341.0,0.05,25.1,23.9,"08:20:08",1
"23/07/14","08:40",0.0,25.9,96.5,1003.8,321.6,0.6,1.0,324.3,0.07,25.3,23.9,"08:31:04",1
"23/07/14","08:50",0.0,26.1,96.4,1003.6,346.6,0.5,1.4,341.7,0.09,25.5,23.9,"08:46:48",1
"23/07/14","09:00",0.0,25.8,96.1,1003.6,344.6,0.6,1.2,338.3,0.09,25.2,24.0,"08:57:12",1
"23/07/14","09:10",0.0,25.6,95.6,1003.8,345.1,1.1,1.8,354.6,0.10,24.9,24.0,"09:09:20",1
"23/07/14","09:20",0.0,25.8,95.5,1004.1,336.3,1.0,1.7,321.8,0.10,25.1,24.0,"09:12:56",1
"23/07/14","09:30",0.0,26.2,95.1,1003.4,341.2,0.7,1.6,346.3,0.14,25.4,24.0,"09:20:16",1
"23/07/14","09:40",0.0,26.9,94.2,1003.1,358.8,0.8,1.9,338.5,0.29,25.9,23.8,"09:35:20",1
"23/07/14","09:50",0.0,27.3,93.9,1002.9,346.6,0.6,1.6,339.2,0.19,26.3,23.9,"09:45:20",1
"23/07/14","10:00",0.0,27.9,92.2,1003.4,325.0,0.3,1.2,308.0,0.24,26.6,23.9,"09:59:04",1
"23/07/14","10:10",0.0,28.4,91.0,1003.6,237.4,0.6,1.1,325.9,0.23,26.8,23.8,"10:03:12",1
"23/07/14","10:20",0.0,28.2,88.9,1004.3,214.9,0.6,1.6,237.3,0.13,26.2,24.0,"10:14:08",1
"23/07/14","10:30",0.0,28.7,86.3,1004.1,342.5,0.6,1.6,31.7,0.19,26.2,24.3,"10:27:12",1
"23/07/14","10:40",0.0,29.0,83.6,1003.8,356.4,0.6,1.4,354.3,0.15,26.0,24.1,"10:31:36",1
"23/07/14","10:50",0.0,29.2,81.9,1003.6,336.6,0.7,1.6,352.2,0.18,25.8,24.1,"10:41:04",1
"23/07/14","11:00",0.0,29.3,80.7,1003.8,349.3,0.7,2.0,349.4,0.13,25.7,24.2,"10:56:56",1
"23/07/14","11:10",0.0,29.3,80.1,1003.8,299.3,0.6,1.4,344.0,0.17,25.5,24.3,"11:01:28",1
"23/07/14","11:20",0.0,29.4,80.5,1003.8,333.3,0.8,2.5,343.4,0.16,25.7,24.2,"11:17:52",1
"23/07/14","11:30",0.0,29.4,80.7,1003.4,355.9,1.0,1.9,348.0,0.12,25.8,24.3,"11:22:56",1
"23/07/14","11:40",0.0,29.4,80.3,1003.1,356.7,1.1,2.1,351.7,0.19,25.7,24.3,"11:36:08",1
"23/07/14","11:50",0.0,30.5,79.2,1003.6,25.7,0.6,1.7,354.1,0.30,26.5,24.3,"11:41:20",1
"23/07/14","12:00",0.0,31.5,77.0,1003.8,105.6,0.7,1.6,108.4,0.36,27.0,24.3,"11:59:04",1
"23/07/14","12:10",0.0,31.9,73.6,1004.3,80.8,1.1,4.7,217.6,0.40,26.6,24.4,"12:08:16",1
"23/07/14","12:20",0.0,31.7,70.2,1004.5,241.9,1.8,4.2,240.8,0.38,25.6,24.3,"12:16:00",1
"23/07/14","12:30",0.0,31.9,68.9,1004.1,224.1,1.8,4.7,225.0,0.34,25.5,24.4,"12:27:36",1
"23/07/14","12:40",0.0,31.4,68.4,1004.3,216.0,2.3,4.3,206.1,0.22,24.9,24.3,"12:33:12",1
"23/07/14","12:50",0.0,31.6,69.5,1003.8,217.6,1.8,7.3,213.2,0.22,25.4,24.3,"12:40:24",1
"23/07/14","13:00",0.0,31.4,67.6,1003.8,222.2,2.3,7.7,226.1,0.26,24.7,24.5,"12:53:20",1
"23/07/14","13:10",0.0,31.7,68.0,1003.6,218.7,1.3,3.5,182.2,0.25,25.1,24.5,"13:00:48",1
"23/07/14","13:20",0.0,31.2,66.8,1003.8,240.3,2.1,4.4,240.0,0.24,24.3,24.6,"13:12:48",1
"23/07/14","13:30",0.0,31.4,67.3,1003.1,242.7,1.5,3.5,240.0,0.24,24.6,24.6,"13:21:04",1
"23/07/14","13:40",0.0,31.1,67.3,1003.1,260.4,2.0,4.1,242.1,0.23,24.4,24.7,"13:34:16",1
"23/07/14","13:50",0.0,30.8,67.5,1002.9,258.8,1.8,4.2,243.2,0.20,24.1,24.7,"13:43:28",1
"23/07/14","14:00",0.0,30.8,69.2,1002.6,243.5,1.8,7.0,235.8,0.17,24.5,24.6,"13:50:48",1
"23/07/14","14:10",0.0,30.7,69.7,1002.6,321.7,1.2,4.0,352.4,0.15,24.6,24.5,"14:08:16",1
"23/07/14","14:20",0.0,30.4,70.3,1002.6,249.4,1.1,3.3,348.5,0.13,24.4,24.8,"14:17:52",1
"23/07/14","14:30",0.0,30.3,70.9,1002.4,262.5,1.0,3.2,243.7,0.12,24.5,24.7,"14:24:56",1
"23/07/14","14:40",0.0,29.9,71.9,1002.4,292.5,1.5,3.4,343.7,0.12,24.3,24.8,"14:30:08",1
"23/07/14","14:50",0.0,29.8,73.0,1002.2,299.9,1.2,3.4,348.2,0.12,24.5,24.9,"14:45:44",1
"23/07/14","15:00",0.0,29.7,73.2,1002.2,300.6,1.2,3.2,327.4,0.12,24.4,24.9,"14:52:16",1
"23/07/14","15:10",0.0,29.6,74.1,1002.2,310.2,1.2,3.4,354.3,0.10,24.5,24.9,"15:02:56",1
"23/07/14","15:20",0.0,29.2,74.1,1002.4,324.7,1.7,3.2,354.6,0.09,24.1,24.9,"15:17:12",1
"23/07/14","15:30",0.0,29.1,74.6,1002.2,331.2,1.3,2.6,334.8,0.07,24.2,24.8,"15:22:48",1
"23/07/14","15:40",0.0,28.9,74.5,1001.7,330.0,1.5,3.2,338.8,0.07,23.9,24.9,"15:39:28",1
"23/07/14","15:50",0.0,28.8,74.4,1001.7,309.0,1.3,2.8,329.1,0.06,23.8,24.8,"15:40:08",1
"23/07/14","16:00",0.0,28.9,73.6,1001.5,310.5,1.2,4.2,345.4,0.07,23.7,24.9,"15:51:44",1
"23/07/14","16:10",0.0,28.9,72.5,1001.9,281.8,1.0,3.2,281.0,0.08,23.5,24.9,"16:02:24",1
"23/07/14","16:20",0.0,28.8,71.0,1001.7,277.5,1.0,2.5,313.6,0.07,23.1,24.8,"16:18:08",1
"23/07/14","16:30",0.0,28.7,70.8,1001.7,267.4,0.8,1.6,245.5,0.04,22.9,24.9,"16:20:24",1
"23/07/14","16:40",0.0,28.6,71.0,1001.7,319.7,1.1,1.7,239.4,0.02,22.9,24.7,"16:32:32",1
"23/07/14","16:50",0.0,28.2,71.5,1001.2,320.5,1.7,3.1,334.2,0.01,22.6,25.0,"16:48:24",1
"23/07/14","17:00",0.0,27.8,73.0,1001.9,336.6,1.7,3.5,337.6,0.01,22.6,25.0,"16:59:04",1
"23/07/14","17:10",0.0,27.7,73.3,1001.7,338.1,2.0,3.4,346.2,0.02,22.5,24.9,"17:09:04",1
"23/07/14","17:20",0.0,27.6,75.1,1001.9,337.3,1.6,2.7,337.3,0.02,22.8,25.0,"17:16:40",1
"23/07/14","17:30",0.0,27.6,76.6,1002.2,330.4,1.5,2.8,343.9,0.02,23.2,25.1,"17:22:16",1
"23/07/14","17:40",0.0,27.3,78.0,1002.4,303.6,1.1,1.9,337.3,0.01,23.2,24.9,"17:39:36",1
"23/07/14","17:50",0.0,27.1,78.8,1002.4,326.1,1.6,2.7,322.3,0.02,23.1,24.6,"17:41:20",1
"23/07/14","18:00",0.0,27.1,79.6,1002.4,307.0,1.3,3.6,340.3,0.01,23.3,25.0,"17:57:04",1
"23/07/14","18:10",0.0,26.8,80.4,1002.6,326.1,1.3,2.2,336.6,0.00,23.2,24.8,"18:00:02",1
"23/07/14","18:20",0.0,26.7,81.1,1002.6,335.0,1.8,2.8,334.7,0.00,23.2,24.7,"18:16:32",1
"23/07/14","18:30",0.0,26.6,81.8,1002.9,330.4,1.7,2.7,313.5,0.00,23.3,24.7,"18:27:36",1
"23/07/14","18:40",0.0,26.5,82.2,1003.4,321.6,1.6,2.4,334.4,0.00,23.3,24.8,"18:37:20",1
"23/07/14","18:50",0.0,26.4,82.4,1002.9,297.3,1.0,2.0,243.5,0.00,23.2,24.7,"18:40:08",1
"23/07/14","19:00",0.0,26.4,82.7,1003.1,263.3,0.8,1.4,243.3,0.00,23.3,24.8,"18:50:08",1
"23/07/14","19:10",0.0,26.3,83.3,1003.1,310.7,1.1,2.4,332.7,0.00,23.3,24.7,"19:06:24",1
"23/07/14","19:20",0.0,26.1,83.9,1003.1,319.5,1.2,2.1,322.2,0.00,23.2,24.6,"19:11:36",1
"23/07/14","19:30",0.0,25.9,84.7,1003.1,293.8,1.0,1.7,343.5,0.00,23.2,24.8,"19:23:20",1
"23/07/14","19:40",0.0,25.7,85.5,1003.1,310.7,1.3,2.5,310.1,0.00,23.1,24.8,"19:39:12",1
"23/07/14","19:50",0.0,25.5,86.2,1003.6,314.7,1.2,2.0,340.1,0.00,23.1,24.7,"19:48:00",1
"23/07/14","20:00",0.0,25.4,86.9,1002.9,314.1,1.2,2.7,343.2,0.00,23.1,24.8,"19:58:08",1
"23/07/14","20:10",0.0,25.4,87.3,1003.1,293.2,1.5,2.5,247.7,0.00,23.2,24.7,"20:06:48",1
"23/07/14","20:20",0.0,25.3,87.6,1003.1,321.4,2.0,3.5,334.8,0.00,23.1,24.7,"20:17:12",1
"23/07/14","20:30",0.0,25.3,87.8,1003.4,317.1,1.6,2.7,346.8,0.00,23.2,24.7,"20:26:32",1
"23/07/14","20:40",0.0,25.3,87.9,1003.6,314.5,1.5,2.7,339.5,0.00,23.2,24.5,"20:39:52",1
"23/07/14","20:50",0.0,25.5,87.8,1004.1,320.9,1.5,2.6,319.0,0.00,23.4,24.6,"20:40:08",1
"23/07/14","21:00",0.0,25.5,87.6,1003.8,315.4,1.3,2.9,347.8,0.00,23.3,24.6,"20:50:08",1
"23/07/14","21:10",0.0,25.6,87.2,1003.8,306.2,1.3,2.2,346.9,0.00,23.4,24.4,"21:02:56",1
"23/07/14","21:20",0.0,25.8,86.8,1004.1,316.2,1.3,2.4,317.2,0.00,23.5,24.5,"21:12:00",1
"23/07/14","21:30",0.0,25.7,86.9,1004.1,308.6,1.1,2.1,324.4,0.00,23.4,24.4,"21:22:48",1
"23/07/14","21:40",0.0,25.5,87.1,1003.8,315.1,1.5,2.7,322.0,0.00,23.2,24.7,"21:33:20",1
"23/07/14","21:50",0.0,25.4,87.5,1004.1,306.3,1.1,1.8,344.7,0.00,23.2,24.7,"21:40:48",1
"23/07/14","22:00",0.0,25.3,87.7,1003.8,306.3,0.8,1.9,339.4,0.00,23.2,24.4,"21:54:16",1
"23/07/14","22:10",0.0,25.4,87.9,1003.6,247.2,0.8,1.7,219.3,0.00,23.3,24.6,"22:05:28",1
"23/07/14","22:20",0.0,25.3,88.1,1003.6,297.1,0.7,1.6,225.3,0.00,23.2,24.4,"22:12:24",1
"23/07/14","22:30",0.0,25.2,88.4,1003.8,336.0,1.2,1.9,318.2,0.00,23.2,24.4,"22:27:04",1
"23/07/14","22:40",0.0,25.1,88.6,1003.8,329.6,0.7,1.2,346.5,0.00,23.1,24.4,"22:35:36",1
"23/07/14","22:50",0.0,24.9,89.0,1003.4,306.2,0.5,1.0,357.4,0.00,23.0,24.4,"22:47:52",1
"23/07/14","23:00",0.0,24.8,89.3,1003.4,293.8,0.7,1.6,319.1,0.00,23.0,24.3,"22:54:24",1
"23/07/14","23:10",0.0,24.7,89.7,1003.1,308.7,1.1,2.0,342.2,0.00,22.9,24.4,"23:04:00",1
"23/07/14","23:20",0.0,24.6,89.9,1003.6,304.1,0.6,1.7,323.7,0.00,22.9,24.5,"23:12:24",1
"23/07/14","23:30",0.0,24.7,90.1,1003.6,322.5,0.7,1.3,351.9,0.00,23.0,24.4,"23:24:08",1
"23/07/14","23:40",0.0,24.5,90.3,1003.4,317.5,0.3,0.6,320.0,0.00,22.8,24.3,"23:30:08",1
"23/07/14","23:50",0.0,24.6,90.6,1003.1,289.0,1.0,2.1,190.8,0.00,23.0,24.4,"23:44:56",1
"23/07/14","24:00",0.0,24.5,90.8,1002.9,306.5,0.5,1.1,344.9,0.00,22.9,24.4,"23:58:56",1
